RRR4223 LCRA-EGVN

Flight info

Callsign RRR4223
Flight time N/A
Altitude 36000
Route ANANE DCT TOSKA UM978 VAXOS DCT GUDIS DCT LINGI DCT NEVIK DCT ALIXA DCT OLLEK DCT SENTI DCT MEGAN DCT TUNEX DCT SAKET DCT SALMA DCT NOLVI/N0479F380 DCT SURJU DCT PADKO DCT MRM DCT MTL DCT ETREK DCT MADOT DCT MOPEM DCT CACHI DCT AVLON DCT OKRIX DCT BRY DCT CLM DCT KOPOR DCT KESAX DCT KUNAV T421 ICTAM L179 SAWPE Q63 ASHUM
Aircraft L101/H-SDFGHIRWXY/S

Departure

Time 2026-04-14 15:07
Airport RAF Akrotiri (LCRA)

Arrival

Time N/A
Airport RAF Brize Norton (EGVN)
Time Latitude Longitude Altitude Speed Heading
2026-04-14 14:47 34.59095 32.97420 94 ft 0 kts 278°
2026-04-14 15:04 34.59097 32.97408 94 ft 3 kts 278°
2026-04-14 15:04 34.59101 32.97372 93 ft 6 kts 278°
2026-04-14 15:04 34.59088 32.97319 95 ft 8 kts 238°
2026-04-14 15:04 34.59081 32.97259 93 ft 8 kts 284°
2026-04-14 15:05 34.59122 32.97204 95 ft 10 kts 333°
2026-04-14 15:05 34.59181 32.97200 95 ft 7 kts 21°
2026-04-14 15:05 34.59217 32.97243 95 ft 8 kts 58°
2026-04-14 15:05 34.59249 32.97308 95 ft 10 kts 60°
2026-04-14 15:06 34.59305 32.97351 94 ft 9 kts
2026-04-14 15:06 34.59373 32.97362 95 ft 10 kts 25°
2026-04-14 15:06 34.59388 32.97437 96 ft 12 kts 104°
2026-04-14 15:06 34.59315 32.97716 96 ft 74 kts 108°
2026-04-14 15:07 34.59070 32.98644 98 ft 153 kts 107°
2026-04-14 15:07 34.58708 33.00032 584 ft 186 kts 106°
2026-04-14 15:07 34.58244 33.01583 1258 ft 196 kts 117°
2026-04-14 15:07 34.57170 33.02758 1621 ft 230 kts 152°
2026-04-14 15:08 34.55501 33.03201 1729 ft 261 kts 181°
2026-04-14 15:08 34.53749 33.02610 1735 ft 263 kts 212°
2026-04-14 15:08 34.52493 33.01083 1752 ft 260 kts 242°
2026-04-14 15:08 34.51973 32.99002 1828 ft 259 kts 263°
2026-04-14 15:09 34.51747 32.96818 1983 ft 264 kts 260°
2026-04-14 15:09 34.51148 32.94700 2077 ft 268 kts 242°
2026-04-14 15:09 34.50068 32.92863 2176 ft 268 kts 228°
2026-04-14 15:09 34.48734 32.91271 2330 ft 269 kts 221°
2026-04-14 15:10 34.47336 32.89800 2753 ft 266 kts 220°
2026-04-14 15:10 34.45932 32.88351 3213 ft 270 kts 220°
2026-04-14 15:10 34.44491 32.86872 3707 ft 273 kts 219°
2026-04-14 15:10 34.43021 32.85395 4191 ft 275 kts 218°
2026-04-14 15:11 34.41533 32.83936 4688 ft 275 kts 217°
2026-04-14 15:11 34.40037 32.82494 5270 ft 274 kts 217°
2026-04-14 15:11 34.38538 32.81059 5875 ft 276 kts 216°
2026-04-14 15:11 34.37019 32.79611 6497 ft 279 kts 216°
2026-04-14 15:12 34.35488 32.78153 7073 ft 282 kts 216°
2026-04-14 15:12 34.33944 32.76676 7672 ft 284 kts 219°
2026-04-14 15:12 34.32638 32.74875 8196 ft 289 kts 241°
2026-04-14 15:12 34.32090 32.72558 8696 ft 288 kts 267°
2026-04-14 15:13 34.32139 32.70134 9345 ft 290 kts 274°
2026-04-14 15:13 34.32290 32.67686 9991 ft 292 kts 275°
2026-04-14 15:13 34.32493 32.65245 10579 ft 291 kts 278°
2026-04-14 15:13 34.32816 32.62799 10965 ft 302 kts 282°
2026-04-14 15:14 34.33283 32.60280 11100 ft 318 kts 284°
2026-04-14 15:14 34.33882 32.57625 11231 ft 334 kts 286°
2026-04-14 15:14 34.34559 32.54867 11357 ft 349 kts 287°
2026-04-14 15:14 34.35279 32.52006 11483 ft 362 kts 287°
2026-04-14 15:15 34.36025 32.49045 11618 ft 373 kts 287°
2026-04-14 15:15 34.36791 32.46009 11875 ft 379 kts 287°
2026-04-14 15:15 34.37565 32.42956 12356 ft 379 kts 287°
2026-04-14 15:15 34.38340 32.39907 12907 ft 378 kts 287°
2026-04-14 15:16 34.39108 32.36898 13452 ft 378 kts 287°
2026-04-14 15:16 34.39885 32.33851 13948 ft 380 kts 287°
2026-04-14 15:16 34.40666 32.30786 14432 ft 380 kts 287°
2026-04-14 15:16 34.41447 32.27713 14942 ft 381 kts 287°
2026-04-14 15:17 34.42228 32.24640 15460 ft 382 kts 287°
2026-04-14 15:17 34.43011 32.21554 15967 ft 384 kts 287°
2026-04-14 15:17 34.43796 32.18456 16501 ft 385 kts 287°
2026-04-14 15:17 34.44583 32.15352 17048 ft 386 kts 287°
2026-04-14 15:18 34.45372 32.12236 17584 ft 388 kts 287°
2026-04-14 15:18 34.46162 32.09111 18125 ft 389 kts 286°
2026-04-14 15:18 34.46954 32.05975 18657 ft 390 kts 286°
2026-04-14 15:18 34.47740 32.02858 19121 ft 392 kts 286°
2026-04-14 15:19 34.48540 31.99684 19550 ft 395 kts 286°
2026-04-14 15:19 34.49345 31.96487 19978 ft 399 kts 286°
2026-04-14 15:19 34.50157 31.93255 20437 ft 401 kts 286°
2026-04-14 15:19 34.50973 31.90006 20898 ft 404 kts 286°
2026-04-14 15:20 34.51795 31.86732 21343 ft 408 kts 286°
2026-04-14 15:20 34.52622 31.83432 21809 ft 411 kts 287°
2026-04-14 15:20 34.53457 31.80095 22284 ft 414 kts 287°
2026-04-14 15:20 34.54296 31.76738 22777 ft 418 kts 286°
2026-04-14 15:21 34.55142 31.73349 23235 ft 422 kts 286°
2026-04-14 15:21 34.55994 31.69932 23715 ft 425 kts 286°
2026-04-14 15:21 34.56853 31.66484 24142 ft 428 kts 287°
2026-04-14 15:21 34.57715 31.63017 24600 ft 430 kts 287°
2026-04-14 15:22 34.58579 31.59539 25083 ft 430 kts 287°
2026-04-14 15:22 34.59443 31.56054 25519 ft 433 kts 287°
2026-04-14 15:22 34.60319 31.52520 25692 ft 441 kts 287°
2026-04-14 15:22 34.61212 31.48910 25847 ft 450 kts 287°
2026-04-14 15:23 34.62108 31.45289 25979 ft 458 kts 287°
2026-04-14 15:23 34.63029 31.41564 26255 ft 462 kts 287°
2026-04-14 15:23 34.63953 31.37819 26736 ft 461 kts 287°
2026-04-14 15:23 34.64869 31.34096 27403 ft 457 kts 287°
2026-04-14 15:24 34.65772 31.30418 28162 ft 451 kts 287°
2026-04-14 15:24 34.66659 31.26795 28945 ft 445 kts 287°
2026-04-14 15:24 34.67538 31.23196 29704 ft 440 kts 287°
2026-04-14 15:24 34.68403 31.19653 30386 ft 436 kts 287°
2026-04-14 15:25 34.69261 31.16130 30970 ft 433 kts 287°
2026-04-14 15:25 34.70111 31.12637 31591 ft 429 kts 287°
2026-04-14 15:25 34.70939 31.09227 32236 ft 424 kts 287°
2026-04-14 15:25 34.71769 31.05806 32937 ft 418 kts 287°
2026-04-14 15:26 34.72586 31.02435 33680 ft 413 kts 287°
2026-04-14 15:26 34.73389 30.99114 34410 ft 407 kts 286°
2026-04-14 15:26 34.74180 30.95834 35096 ft 401 kts 287°
2026-04-14 15:26 34.74961 30.92594 35751 ft 395 kts 286°
2026-04-14 15:27 34.75721 30.89437 36028 ft 379 kts 287°
2026-04-14 15:27 34.76205 30.87423 36208 ft 374 kts 287°
2026-04-14 15:27 34.77193 30.83303 36241 ft 393 kts 287°
2026-04-14 15:27 34.77969 30.80072 36160 ft 400 kts 287°
2026-04-14 15:28 34.79535 30.73561 36161 ft 401 kts 287°
2026-04-14 15:28 34.80846 30.68093 36166 ft 402 kts 286°
2026-04-14 15:29 34.82405 30.61566 36166 ft 402 kts 286°
2026-04-14 15:29 34.83952 30.55072 36168 ft 402 kts 286°
2026-04-14 15:30 34.85505 30.48539 36169 ft 402 kts 286°
2026-04-14 15:30 34.87054 30.42002 36167 ft 402 kts 286°
2026-04-14 15:31 34.88601 30.35458 36168 ft 402 kts 286°
2026-04-14 15:31 34.90145 30.28906 36168 ft 402 kts 286°
2026-04-14 15:32 34.91688 30.22345 36171 ft 403 kts 286°
2026-04-14 15:32 34.93226 30.15784 36176 ft 403 kts 286°
2026-04-14 15:33 34.94752 30.09260 36178 ft 403 kts 285°
2026-04-14 15:33 34.96252 30.02680 36170 ft 402 kts 282°
2026-04-14 15:34 34.96796 29.95891 36182 ft 403 kts 273°
2026-04-14 15:34 34.97040 29.89091 36177 ft 403 kts 275°
2026-04-14 15:35 34.97391 29.82256 36192 ft 405 kts 274°
2026-04-14 15:35 34.97690 29.75365 36176 ft 407 kts 274°
2026-04-14 15:36 34.97961 29.68456 36179 ft 408 kts 274°
2026-04-14 15:36 34.98233 29.61543 36176 ft 408 kts 274°
2026-04-14 15:37 34.98507 29.54638 36179 ft 408 kts 274°
2026-04-14 15:37 34.98779 29.47724 36172 ft 408 kts 273°
2026-04-14 15:38 34.99046 29.40815 36174 ft 408 kts 273°
2026-04-14 15:38 34.98725 29.33934 36169 ft 410 kts 256°
2026-04-14 15:39 34.96920 29.27315 36173 ft 412 kts 257°
2026-04-14 15:39 34.95426 29.20576 36172 ft 412 kts 257°
2026-04-14 15:40 34.93692 29.13903 36159 ft 413 kts 254°
2026-04-14 15:40 34.91833 29.07318 36176 ft 414 kts 254°
2026-04-14 15:41 34.89956 29.00682 36165 ft 415 kts 254°
2026-04-14 15:41 34.88062 28.94043 36171 ft 415 kts 253°
2026-04-14 15:42 34.86159 28.87412 36169 ft 414 kts 253°
2026-04-14 15:42 34.84251 28.80784 36168 ft 414 kts 253°
2026-04-14 15:43 34.82344 28.74171 36168 ft 414 kts 253°
2026-04-14 15:43 34.80433 28.67560 36168 ft 414 kts 253°
2026-04-14 15:44 34.78519 28.60955 36163 ft 414 kts 253°
2026-04-14 15:44 34.76615 28.54402 36168 ft 413 kts 253°
2026-04-14 15:45 34.74694 28.47805 36167 ft 413 kts 253°
2026-04-14 15:45 34.72768 28.41205 36167 ft 413 kts 253°
2026-04-14 15:46 34.70853 28.34658 36169 ft 413 kts 252°
2026-04-14 15:46 34.68924 28.28081 36171 ft 413 kts 253°
2026-04-14 15:47 34.66990 28.21497 36165 ft 413 kts 253°
2026-04-14 15:47 34.65052 28.14913 36165 ft 413 kts 252°
2026-04-14 15:48 34.63110 28.08336 36166 ft 413 kts 252°
2026-04-14 15:48 34.61168 28.01770 36165 ft 413 kts 252°
2026-04-14 15:49 34.59225 27.95223 36166 ft 412 kts 252°
2026-04-14 15:49 34.57290 27.88718 36163 ft 411 kts 252°
2026-04-14 15:50 34.55346 27.82189 36166 ft 411 kts 252°
2026-04-14 15:50 34.54292 27.75470 36181 ft 406 kts 270°
2026-04-14 15:51 34.54204 27.68608 36158 ft 407 kts 266°
2026-04-14 15:51 34.53841 27.61747 36159 ft 408 kts 268°
2026-04-14 15:52 34.53784 27.54902 36159 ft 408 kts 270°
2026-04-14 15:52 34.53814 27.48022 36157 ft 408 kts 270°
2026-04-14 15:53 34.53840 27.41126 36154 ft 408 kts 270°
2026-04-14 15:53 34.53875 27.34232 36157 ft 408 kts 270°
2026-04-14 15:54 34.53927 27.23941 36156 ft 408 kts 270°
2026-04-14 15:55 34.53957 27.17057 36167 ft 408 kts 269°
2026-04-14 15:55 34.53985 27.10161 36149 ft 409 kts 269°
2026-04-14 15:56 34.54006 27.03248 36151 ft 410 kts 269°
2026-04-14 15:56 34.54026 26.96337 36155 ft 409 kts 269°
2026-04-14 15:57 34.54042 26.89420 36153 ft 409 kts 269°
2026-04-14 15:57 34.54055 26.82553 36163 ft 410 kts 269°
2026-04-14 15:58 34.54061 26.75605 36150 ft 412 kts 268°
2026-04-14 15:58 34.54065 26.68640 36166 ft 412 kts 268°
2026-04-14 15:59 34.54066 26.61692 36146 ft 412 kts 268°
2026-04-14 15:59 34.54062 26.54732 36154 ft 412 kts 268°
2026-04-14 16:00 34.54055 26.47765 36152 ft 414 kts 268°
2026-04-14 16:00 34.54043 26.40825 36155 ft 414 kts 268°
2026-04-14 16:01 34.54027 26.33838 36148 ft 414 kts 268°
2026-04-14 16:01 34.54008 26.26850 36149 ft 414 kts 268°
2026-04-14 16:02 34.53984 26.19851 36148 ft 415 kts 268°
2026-04-14 16:02 34.53956 26.12861 36127 ft 416 kts 268°
2026-04-14 16:03 34.53925 26.05847 36133 ft 415 kts 268°
2026-04-14 16:03 34.53890 25.98861 36131 ft 414 kts 268°
2026-04-14 16:04 34.53851 25.91870 36129 ft 414 kts 268°
2026-04-14 16:04 34.53806 25.84883 36135 ft 414 kts 268°
2026-04-14 16:05 34.53759 25.77897 36126 ft 414 kts 268°
2026-04-14 16:05 34.53707 25.70914 36120 ft 414 kts 268°
2026-04-14 16:06 34.53652 25.63964 36132 ft 414 kts 268°
2026-04-14 16:06 34.53593 25.56969 36121 ft 415 kts 267°
2026-04-14 16:07 34.53529 25.49965 36120 ft 416 kts 267°
2026-04-14 16:07 34.53461 25.42947 36121 ft 416 kts 267°
2026-04-14 16:08 34.53390 25.35928 36119 ft 416 kts 267°
2026-04-14 16:08 34.53314 25.28908 36115 ft 416 kts 266°
2026-04-14 16:09 34.53234 25.21880 36118 ft 417 kts 266°
2026-04-14 16:09 34.53150 25.14853 36118 ft 417 kts 266°
2026-04-14 16:10 34.53062 25.07822 36122 ft 417 kts 267°
2026-04-14 16:10 34.52971 25.00830 36124 ft 417 kts 266°
2026-04-14 16:11 34.52876 24.93795 36116 ft 417 kts 266°
2026-04-14 16:11 34.52775 24.86751 36119 ft 418 kts 266°
2026-04-14 16:12 34.52671 24.79702 36115 ft 418 kts 266°
2026-04-14 16:12 34.52563 24.72661 36112 ft 418 kts 266°
2026-04-14 16:13 34.52470 24.66807 36113 ft 418 kts 266°
2026-04-14 16:13 34.52355 24.59760 36106 ft 418 kts 267°
2026-04-14 16:13 34.52585 24.56232 36095 ft 422 kts 278°
2026-04-14 16:14 34.53630 24.51672 36113 ft 424 kts 282°
2026-04-14 16:14 34.54803 24.45857 36105 ft 423 kts 278°
2026-04-14 16:15 34.56138 24.38927 36104 ft 425 kts 281°
2026-04-14 16:15 34.57781 24.32001 36102 ft 428 kts 282°
2026-04-14 16:16 34.59481 24.25046 36103 ft 429 kts 282°
2026-04-14 16:16 34.61168 24.18148 36102 ft 429 kts 282°
2026-04-14 16:17 34.62876 24.11199 36099 ft 429 kts 282°
2026-04-14 16:17 34.64582 24.04252 36100 ft 429 kts 281°
2026-04-14 16:18 34.66286 23.97293 36097 ft 429 kts 281°
2026-04-14 16:18 34.67983 23.90342 36100 ft 429 kts 281°
2026-04-14 16:19 34.69666 23.83435 36094 ft 429 kts 281°
2026-04-14 16:19 34.71358 23.76474 36094 ft 429 kts 281°
2026-04-14 16:20 34.73045 23.69516 36083 ft 427 kts 281°
2026-04-14 16:20 34.74718 23.62592 36089 ft 426 kts 281°
2026-04-14 16:21 34.76384 23.55675 36086 ft 426 kts 281°
2026-04-14 16:21 34.78044 23.48763 36080 ft 426 kts 281°
2026-04-14 16:22 34.79692 23.41888 36094 ft 426 kts 280°
2026-04-14 16:22 34.81348 23.34968 36076 ft 425 kts 280°
2026-04-14 16:23 34.82992 23.28061 36081 ft 425 kts 280°
2026-04-14 16:23 34.84631 23.21161 36071 ft 425 kts 280°
2026-04-14 16:24 34.86270 23.14245 36074 ft 425 kts 279°
2026-04-14 16:24 34.87906 23.07331 36069 ft 425 kts 279°
2026-04-14 16:25 34.89537 23.00409 36068 ft 425 kts 279°
2026-04-14 16:25 34.91167 22.93472 36065 ft 425 kts 279°
2026-04-14 16:26 34.92782 22.86582 36063 ft 425 kts 279°
2026-04-14 16:26 34.94403 22.79647 36061 ft 425 kts 279°
2026-04-14 16:27 34.96020 22.72714 36048 ft 424 kts 279°
2026-04-14 16:27 34.97626 22.65811 36053 ft 422 kts 278°
2026-04-14 16:28 34.99222 22.58913 36056 ft 422 kts 278°
2026-04-14 16:28 35.00813 22.52024 36054 ft 422 kts 278°
2026-04-14 16:29 35.02392 22.45176 36076 ft 422 kts 278°
2026-04-14 16:29 35.03979 22.38261 36042 ft 425 kts 279°
2026-04-14 16:30 35.05577 22.31292 36051 ft 426 kts 279°
2026-04-14 16:30 35.07171 22.24326 36049 ft 426 kts 279°
2026-04-14 16:31 35.08760 22.17356 36045 ft 426 kts 279°
2026-04-14 16:31 35.10345 22.10376 36032 ft 427 kts 279°
2026-04-14 16:32 35.11921 22.03413 36049 ft 430 kts 279°
2026-04-14 16:32 35.13563 21.96369 36040 ft 432 kts 282°
2026-04-14 16:33 35.15471 21.89394 36057 ft 433 kts 282°
2026-04-14 16:33 35.17340 21.82403 36043 ft 433 kts 282°
2026-04-14 16:34 35.19284 21.75408 36045 ft 436 kts 283°
2026-04-14 16:34 35.21280 21.68355 36050 ft 440 kts 283°
2026-04-14 16:35 35.23288 21.61274 36048 ft 441 kts 283°
2026-04-14 16:35 35.25282 21.54232 36054 ft 441 kts 283°
2026-04-14 16:36 35.27285 21.47145 36058 ft 441 kts 283°
2026-04-14 16:36 35.29288 21.40039 36058 ft 442 kts 283°
2026-04-14 16:37 35.31294 21.32906 36057 ft 442 kts 283°
2026-04-14 16:37 35.33296 21.25769 36050 ft 442 kts 283°
2026-04-14 16:38 35.35291 21.18639 36053 ft 442 kts 283°
2026-04-14 16:38 35.37274 21.11533 36049 ft 443 kts 283°
2026-04-14 16:39 35.39263 21.04386 36036 ft 443 kts 283°
2026-04-14 16:39 35.41252 20.97221 36038 ft 444 kts 283°
2026-04-14 16:40 35.43235 20.90058 36043 ft 444 kts 283°
2026-04-14 16:40 35.45217 20.82883 36039 ft 444 kts 283°
2026-04-14 16:41 35.47193 20.75711 36025 ft 443 kts 283°
2026-04-14 16:41 35.49149 20.68591 36030 ft 442 kts 283°
2026-04-14 16:42 35.51111 20.61426 36044 ft 442 kts 283°
2026-04-14 16:42 35.53067 20.54266 36026 ft 442 kts 283°
2026-04-14 16:43 35.55019 20.47102 36040 ft 442 kts 282°
2026-04-14 16:43 35.56973 20.39911 36024 ft 445 kts 282°
2026-04-14 16:44 35.58920 20.32723 36016 ft 446 kts 282°
2026-04-14 16:44 35.60903 20.25480 36015 ft 446 kts 282°
2026-04-14 16:45 35.62912 20.14441 36005 ft 440 kts 275°
2026-04-14 16:45 35.64146 20.07035 35999 ft 444 kts 276°
2026-04-14 16:46 35.65505 19.99597 35991 ft 446 kts 276°
2026-04-14 16:46 35.66849 19.92141 35976 ft 447 kts 276°
2026-04-14 16:47 35.68192 19.84678 35976 ft 447 kts 276°
2026-04-14 16:47 35.69534 19.77216 35972 ft 447 kts 276°
2026-04-14 16:48 35.70871 19.69755 35971 ft 446 kts 275°
2026-04-14 16:48 35.72192 19.62346 35963 ft 446 kts 275°
2026-04-14 16:49 35.73517 19.54886 35959 ft 446 kts 275°
2026-04-14 16:49 35.74840 19.47422 35954 ft 446 kts 275°
2026-04-14 16:50 35.76157 19.39958 35939 ft 445 kts 275°
2026-04-14 16:50 35.77466 19.32512 35950 ft 445 kts 275°
2026-04-14 16:51 35.78769 19.25061 35944 ft 445 kts 275°
2026-04-14 16:51 35.80068 19.17613 35944 ft 444 kts 275°
2026-04-14 16:52 35.81357 19.10192 35948 ft 445 kts 275°
2026-04-14 16:52 35.82651 19.02702 35936 ft 447 kts 275°
2026-04-14 16:53 35.83947 18.95189 35932 ft 448 kts 275°
2026-04-14 16:53 35.85233 18.87711 35930 ft 448 kts 275°
2026-04-14 16:54 35.86520 18.80189 35929 ft 448 kts 275°
2026-04-14 16:54 35.87803 18.72658 35919 ft 449 kts 275°
2026-04-14 16:55 35.89086 18.65093 35920 ft 451 kts 275°
2026-04-14 16:55 35.90359 18.57565 35920 ft 451 kts 275°
2026-04-14 16:56 35.91637 18.49982 35914 ft 451 kts 275°
2026-04-14 16:56 35.92909 18.42398 35933 ft 451 kts 275°
2026-04-14 16:57 35.94177 18.34795 35895 ft 453 kts 275°
2026-04-14 16:57 35.95446 18.27170 35915 ft 453 kts 275°
2026-04-14 16:58 35.96703 18.19588 35905 ft 454 kts 275°
2026-04-14 16:58 35.97964 18.11946 35900 ft 453 kts 275°
2026-04-14 16:59 35.99218 18.04312 35904 ft 453 kts 275°
2026-04-14 16:59 36.00467 17.96676 35893 ft 453 kts 275°
2026-04-14 17:00 36.01711 17.89035 35889 ft 453 kts 274°
2026-04-14 17:00 36.02950 17.81397 35877 ft 453 kts 274°
2026-04-14 17:01 36.03976 17.75048 35879 ft 453 kts 274°
2026-04-14 17:01 36.05206 17.67403 35860 ft 453 kts 274°
2026-04-14 17:02 36.06429 17.59778 35878 ft 452 kts 274°
2026-04-14 17:02 36.07638 17.52190 35875 ft 452 kts 274°
2026-04-14 17:03 36.08851 17.44558 35876 ft 452 kts 274°
2026-04-14 17:03 36.10059 17.36922 35878 ft 453 kts 274°
2026-04-14 17:04 36.11263 17.29287 35873 ft 452 kts 274°
2026-04-14 17:04 36.12459 17.21654 35876 ft 452 kts 274°
2026-04-14 17:05 36.13651 17.14019 35873 ft 452 kts 274°
2026-04-14 17:05 36.14838 17.06385 35875 ft 452 kts 274°
2026-04-14 17:06 36.16014 16.98787 35862 ft 453 kts 274°
2026-04-14 17:06 36.17200 16.91095 35871 ft 455 kts 274°
2026-04-14 17:07 36.18381 16.83405 35872 ft 455 kts 274°
2026-04-14 17:07 36.19559 16.75702 35866 ft 455 kts 274°
2026-04-14 17:08 36.20730 16.68009 35882 ft 455 kts 274°
2026-04-14 17:08 36.21898 16.60292 35863 ft 456 kts 273°
2026-04-14 17:09 36.23057 16.52605 35865 ft 457 kts 273°
2026-04-14 17:09 36.24219 16.44864 35869 ft 457 kts 273°
2026-04-14 17:10 36.25374 16.37130 35866 ft 457 kts 273°
2026-04-14 17:10 36.26526 16.29378 35856 ft 459 kts 274°
2026-04-14 17:11 36.27681 16.21569 35865 ft 461 kts 274°
2026-04-14 17:11 36.28837 16.13740 35862 ft 461 kts 274°
2026-04-14 17:12 36.29980 16.05954 35859 ft 461 kts 273°
2026-04-14 17:12 36.31123 15.98124 35878 ft 462 kts 274°
2026-04-14 17:13 36.32263 15.90261 35850 ft 464 kts 274°
2026-04-14 17:13 36.33408 15.82362 35854 ft 465 kts 274°
2026-04-14 17:14 36.34547 15.74462 35856 ft 465 kts 274°
2026-04-14 17:14 36.35672 15.66602 35856 ft 465 kts 274°
2026-04-14 17:15 36.36798 15.58693 35840 ft 466 kts 274°
2026-04-14 17:15 36.37922 15.50775 35858 ft 466 kts 274°
2026-04-14 17:16 36.39040 15.42854 35850 ft 466 kts 274°
2026-04-14 17:16 36.40152 15.34925 35863 ft 466 kts 274°
2026-04-14 17:17 36.41259 15.26997 35871 ft 466 kts 274°
2026-04-14 17:17 36.42363 15.19056 35856 ft 466 kts 274°
2026-04-14 17:18 36.43463 15.11105 35864 ft 467 kts 274°
2026-04-14 17:18 36.44556 15.03159 35867 ft 467 kts 274°
2026-04-14 17:19 36.45644 14.95207 35867 ft 467 kts 274°
2026-04-14 17:19 36.46719 14.87308 35864 ft 467 kts 274°
2026-04-14 17:20 36.47796 14.79349 35874 ft 467 kts 274°
2026-04-14 17:20 36.48867 14.71393 35875 ft 467 kts 274°
2026-04-14 17:21 36.49936 14.63426 35880 ft 467 kts 274°
2026-04-14 17:21 36.51861 14.55634 35895 ft 476 kts 286°
2026-04-14 17:22 36.54142 14.47920 35887 ft 475 kts 283°
2026-04-14 17:22 36.56408 14.40248 35891 ft 477 kts 286°
2026-04-14 17:23 36.58934 14.32608 35888 ft 478 kts 287°
2026-04-14 17:23 36.61501 14.24964 35888 ft 478 kts 287°
2026-04-14 17:24 36.64067 14.17317 35868 ft 479 kts 288°
2026-04-14 17:24 36.66645 14.09663 35886 ft 479 kts 288°
2026-04-14 17:25 36.69221 14.02004 35898 ft 480 kts 288°
2026-04-14 17:25 36.71779 13.94376 35897 ft 480 kts 288°
2026-04-14 17:26 36.74344 13.86706 35899 ft 479 kts 288°
2026-04-14 17:26 36.76911 13.79009 35893 ft 481 kts 288°
2026-04-14 17:27 36.79484 13.71279 35903 ft 483 kts 288°
2026-04-14 17:27 36.82074 13.63543 35901 ft 484 kts 291°
2026-04-14 17:28 36.85741 13.56412 35907 ft 491 kts 303°
2026-04-14 17:28 36.89793 13.49546 35924 ft 491 kts 301°
2026-04-14 17:29 36.93754 13.42573 35890 ft 492 kts 302°
2026-04-14 17:29 36.97734 13.35592 35901 ft 494 kts 302°
2026-04-14 17:30 37.01721 13.28583 35897 ft 494 kts 302°
2026-04-14 17:30 37.05676 13.21615 35898 ft 494 kts 302°
2026-04-14 17:31 37.09655 13.14591 35893 ft 494 kts 302°
2026-04-14 17:31 37.13624 13.07566 35890 ft 493 kts 302°
2026-04-14 17:32 37.17582 13.00549 35892 ft 493 kts 302°
2026-04-14 17:32 37.21538 12.93522 35887 ft 493 kts 302°
2026-04-14 17:33 37.25484 12.86495 35883 ft 493 kts 302°
2026-04-14 17:34 37.31400 12.75932 35889 ft 493 kts 303°
2026-04-14 17:34 37.35337 12.68883 35872 ft 493 kts 303°
2026-04-14 17:35 37.39247 12.61872 35880 ft 493 kts 303°
2026-04-14 17:35 37.43186 12.54791 35872 ft 493 kts 303°
2026-04-14 17:36 37.47119 12.47706 35873 ft 493 kts 303°
2026-04-14 17:36 37.51044 12.40620 35886 ft 493 kts 303°
2026-04-14 17:37 37.54936 12.33578 35869 ft 493 kts 303°
2026-04-14 17:37 37.58847 12.26485 35877 ft 493 kts 303°
2026-04-14 17:38 37.62762 12.19371 35876 ft 493 kts 303°
2026-04-14 17:38 37.66668 12.12258 35884 ft 493 kts 303°
2026-04-14 17:39 37.70575 12.05126 35884 ft 493 kts 303°
2026-04-14 17:39 37.74453 11.98031 35886 ft 493 kts 303°
2026-04-14 17:40 37.78345 11.90895 35888 ft 493 kts 303°
2026-04-14 17:40 37.82236 11.83745 35886 ft 493 kts 303°
2026-04-14 17:41 37.86124 11.76585 35886 ft 493 kts 303°
2026-04-14 17:41 37.89978 11.69471 35887 ft 493 kts 303°
2026-04-14 17:42 37.93855 11.62299 35884 ft 492 kts 303°
2026-04-14 17:42 37.97711 11.55152 35888 ft 491 kts 303°
2026-04-14 17:43 38.01561 11.47997 35888 ft 491 kts 303°
2026-04-14 17:43 38.05409 11.40832 35884 ft 491 kts 303°
2026-04-14 17:44 38.09253 11.33657 35889 ft 491 kts 303°
2026-04-14 17:44 38.13067 11.26521 35882 ft 491 kts 303°
2026-04-14 17:45 38.16898 11.19337 35889 ft 491 kts 303°
2026-04-14 17:45 38.20727 11.12140 35886 ft 491 kts 303°
2026-04-14 17:46 38.24545 11.04947 35884 ft 489 kts 303°
2026-04-14 17:46 38.28347 10.97771 35886 ft 489 kts 303°
2026-04-14 17:47 38.32154 10.90563 35887 ft 491 kts 303°
2026-04-14 17:47 38.35930 10.83401 35885 ft 490 kts 303°
2026-04-14 17:48 38.39721 10.76194 35884 ft 489 kts 303°
2026-04-14 17:48 38.43502 10.68991 35884 ft 488 kts 303°
2026-04-14 17:49 38.47279 10.61779 35883 ft 489 kts 303°
2026-04-14 17:49 38.50418 10.55773 35888 ft 490 kts 303°
2026-04-14 17:50 38.54209 10.48500 35888 ft 493 kts 303°
2026-04-14 17:50 38.58006 10.41203 35880 ft 493 kts 303°
2026-04-14 17:51 38.61788 10.33917 35880 ft 491 kts 303°
2026-04-14 17:51 38.65577 10.26599 35884 ft 495 kts 303°
2026-04-14 17:52 38.69354 10.19287 35886 ft 495 kts 303°
2026-04-14 17:52 38.73151 10.11921 35889 ft 496 kts 303°
2026-04-14 17:53 38.76947 10.04536 35889 ft 497 kts 303°
2026-04-14 17:53 38.80739 9.97146 35892 ft 494 kts 303°
2026-04-14 17:54 38.84512 9.89770 35889 ft 496 kts 302°
2026-04-14 17:54 38.88298 9.82353 35883 ft 496 kts 303°
2026-04-14 17:55 38.92034 9.75020 35882 ft 493 kts 303°
2026-04-14 17:55 38.95783 9.67642 35904 ft 492 kts 302°
2026-04-14 17:56 38.99514 9.60281 35897 ft 490 kts 302°
2026-04-14 17:56 39.03236 9.52919 35902 ft 492 kts 302°
2026-04-14 17:57 39.06964 9.45526 35887 ft 492 kts 302°
2026-04-14 17:57 39.10671 9.38158 35893 ft 489 kts 303°
2026-04-14 17:58 39.14342 9.30848 35915 ft 488 kts 302°
2026-04-14 17:58 39.18030 9.23483 35912 ft 489 kts 302°
2026-04-14 17:59 39.21715 9.16107 35913 ft 490 kts 302°
2026-04-14 17:59 39.25400 9.08713 35910 ft 489 kts 302°
2026-04-14 18:00 39.29072 9.01328 35909 ft 486 kts 303°
2026-04-14 18:00 39.34545 8.90289 35913 ft 487 kts 303°
2026-04-14 18:01 39.38190 8.82920 35923 ft 486 kts 303°
2026-04-14 18:01 39.41817 8.75564 35934 ft 485 kts 303°
2026-04-14 18:02 39.45422 8.68231 35936 ft 485 kts 303°
2026-04-14 18:02 39.49028 8.60884 35938 ft 482 kts 304°
2026-04-14 18:03 39.52618 8.53548 35938 ft 481 kts 304°
2026-04-14 18:03 39.56199 8.46219 35939 ft 481 kts 303°
2026-04-14 18:04 39.59771 8.38884 35934 ft 481 kts 304°
2026-04-14 18:04 39.63348 8.31525 35940 ft 481 kts 304°
2026-04-14 18:05 39.66875 8.24248 35940 ft 478 kts 304°
2026-04-14 18:05 39.70410 8.16940 35943 ft 477 kts 304°
2026-04-14 18:06 39.73942 8.09624 35939 ft 478 kts 304°
2026-04-14 18:06 39.77471 8.02289 35938 ft 478 kts 304°
2026-04-14 18:07 39.81000 7.94939 35942 ft 478 kts 304°
2026-04-14 18:07 39.84489 7.87650 35948 ft 476 kts 304°
2026-04-14 18:08 39.87988 7.80326 35946 ft 476 kts 304°
2026-04-14 18:08 39.91488 7.72978 35953 ft 476 kts 304°
2026-04-14 18:09 39.94975 7.65642 35952 ft 476 kts 304°
2026-04-14 18:09 39.98433 7.58348 35947 ft 476 kts 304°
2026-04-14 18:10 40.01899 7.51014 35957 ft 473 kts 304°
2026-04-14 18:10 40.05344 7.43711 35956 ft 472 kts 304°
2026-04-14 18:11 40.08781 7.36406 35952 ft 472 kts 304°
2026-04-14 18:11 40.12213 7.29094 35959 ft 472 kts 304°
2026-04-14 18:12 40.15614 7.21827 35956 ft 472 kts 304°
2026-04-14 18:12 40.19036 7.14497 35952 ft 472 kts 304°
2026-04-14 18:13 40.22445 7.07177 35964 ft 472 kts 304°
2026-04-14 18:13 40.25858 6.99827 35964 ft 472 kts 304°
2026-04-14 18:14 40.29261 6.92478 35965 ft 472 kts 304°
2026-04-14 18:14 40.32659 6.85123 35963 ft 472 kts 304°
2026-04-14 18:15 40.36024 6.77815 35972 ft 470 kts 304°
2026-04-14 18:15 40.39394 6.70479 35968 ft 469 kts 304°
2026-04-14 18:16 40.42753 6.63146 35971 ft 469 kts 304°
2026-04-14 18:16 40.46108 6.55803 35971 ft 468 kts 304°
2026-04-14 18:17 40.49457 6.48450 35974 ft 469 kts 304°
2026-04-14 18:17 40.52795 6.41098 35981 ft 468 kts 304°
2026-04-14 18:18 40.56101 6.33797 35981 ft 467 kts 304°
2026-04-14 18:18 40.59419 6.26447 35983 ft 467 kts 304°
2026-04-14 18:19 40.62731 6.19085 35985 ft 467 kts 304°
2026-04-14 18:19 40.66036 6.11709 35984 ft 467 kts 304°
2026-04-14 18:20 40.69308 6.04374 35995 ft 466 kts 304°
2026-04-14 18:20 40.71141 6.00878 35985 ft 460 kts 316°
2026-04-14 18:20 40.73564 5.98229 35984 ft 449 kts 334°
2026-04-14 18:21 40.79332 5.95236 36003 ft 448 kts 341°
2026-04-14 18:21 40.85220 5.92388 35991 ft 450 kts 343°
2026-04-14 18:22 40.91191 5.90070 36001 ft 449 kts 347°
2026-04-14 18:22 40.97248 5.88029 36000 ft 449 kts 347°
2026-04-14 18:23 41.03322 5.86024 36001 ft 449 kts 347°
2026-04-14 18:23 41.09381 5.84052 35997 ft 449 kts 348°
2026-04-14 18:24 41.15449 5.82087 36003 ft 449 kts 348°
2026-04-14 18:24 41.21516 5.80122 36000 ft 448 kts 348°
2026-04-14 18:25 41.27546 5.78167 36007 ft 448 kts 348°
2026-04-14 18:25 41.33607 5.76199 36002 ft 448 kts 348°
2026-04-14 18:26 41.39667 5.74228 36011 ft 448 kts 348°
2026-04-14 18:26 41.45723 5.72255 36007 ft 448 kts 348°
2026-04-14 18:27 41.51778 5.70277 36013 ft 447 kts 348°
2026-04-14 18:27 41.57798 5.68308 36007 ft 444 kts 348°
2026-04-14 18:28 41.63753 5.66356 36006 ft 443 kts 348°
2026-04-14 18:28 41.69737 5.64391 36007 ft 443 kts 348°
2026-04-14 18:29 41.75721 5.62430 36013 ft 443 kts 349°
2026-04-14 18:29 41.81784 5.61037 36013 ft 442 kts 353°
2026-04-14 18:30 41.87866 5.59841 36012 ft 441 kts 353°
2026-04-14 18:30 41.93926 5.58603 36013 ft 440 kts 353°
2026-04-14 18:31 41.99991 5.57427 36012 ft 440 kts 353°
2026-04-14 18:31 42.06017 5.56268 36013 ft 440 kts 353°
2026-04-14 18:32 42.12084 5.55100 36009 ft 439 kts 353°
2026-04-14 18:32 42.18141 5.53934 36004 ft 439 kts 353°
2026-04-14 18:33 42.24148 5.52776 36004 ft 439 kts 353°
2026-04-14 18:34 42.36237 5.50438 35998 ft 438 kts 353°
2026-04-14 18:34 42.42267 5.49269 35998 ft 438 kts 353°
2026-04-14 18:35 42.48298 5.48098 36002 ft 437 kts 353°
2026-04-14 18:35 42.54324 5.46925 36000 ft 437 kts 353°
2026-04-14 18:36 42.60341 5.45751 36001 ft 437 kts 353°
2026-04-14 18:36 42.66315 5.44584 35993 ft 437 kts 353°
2026-04-14 18:37 42.72334 5.43405 35993 ft 437 kts 353°
2026-04-14 18:37 42.78346 5.42226 35993 ft 437 kts 353°
2026-04-14 18:38 42.83347 5.41243 35994 ft 436 kts 353°
2026-04-14 18:38 42.89361 5.40059 35996 ft 436 kts 353°
2026-04-14 18:39 42.95373 5.38873 35988 ft 436 kts 353°
2026-04-14 18:39 43.01379 5.37686 35987 ft 436 kts 353°
2026-04-14 18:40 43.07303 5.36511 36653 ft 421 kts 353°
2026-04-14 18:40 43.10115 5.35947 38441 ft 394 kts 353°
2026-04-14 18:40 43.12811 5.35407 39292 ft 395 kts 353°
2026-04-14 18:41 43.15615 5.34854 39009 ft 416 kts 353°
2026-04-14 18:41 43.18485 5.34289 38874 ft 419 kts 353°
2026-04-14 18:41 43.21379 5.33738 38667 ft 420 kts 355°
2026-04-14 18:41 43.24294 5.33440 38406 ft 419 kts 359°
2026-04-14 18:42 43.27207 5.33293 38128 ft 419 kts 359°
2026-04-14 18:42 43.30123 5.33141 37903 ft 417 kts 358°
2026-04-14 18:42 43.35911 5.32626 38027 ft 424 kts 351°
2026-04-14 18:43 43.41636 5.30310 38022 ft 431 kts 344°
2026-04-14 18:43 43.47364 5.27972 38018 ft 432 kts 346°
2026-04-14 18:44 43.53114 5.25571 38024 ft 432 kts 344°
2026-04-14 18:44 43.58846 5.22987 38018 ft 432 kts 344°
2026-04-14 18:45 43.64560 5.20387 38022 ft 432 kts 344°
2026-04-14 18:45 43.70238 5.17793 38017 ft 432 kts 344°
2026-04-14 18:46 43.75943 5.15174 38021 ft 432 kts 343°
2026-04-14 18:46 43.81649 5.12548 38041 ft 432 kts 343°
2026-04-14 18:47 43.87347 5.09919 38045 ft 431 kts 343°
2026-04-14 18:47 43.93047 5.07285 38047 ft 431 kts 343°
2026-04-14 18:48 43.98740 5.04647 38048 ft 431 kts 343°
2026-04-14 18:48 44.04436 5.02003 38074 ft 431 kts 343°
2026-04-14 18:49 44.10091 4.99373 38076 ft 431 kts 343°
2026-04-14 18:49 44.15775 4.96724 38075 ft 430 kts 343°
2026-04-14 18:50 44.21444 4.94076 38079 ft 428 kts 343°
2026-04-14 18:50 44.27073 4.91441 38076 ft 425 kts 343°
2026-04-14 18:51 44.32681 4.88812 38092 ft 424 kts 343°
2026-04-14 18:51 44.38285 4.86179 38112 ft 424 kts 343°
2026-04-14 18:52 44.43835 4.83567 38117 ft 424 kts 343°
2026-04-14 18:52 44.49431 4.80927 38116 ft 424 kts 343°
2026-04-14 18:53 44.55057 4.78463 38122 ft 422 kts 349°
2026-04-14 18:53 44.60835 4.77084 38139 ft 421 kts 352°
2026-04-14 18:54 44.66609 4.75667 38141 ft 421 kts 351°
2026-04-14 18:54 44.72384 4.74294 38148 ft 421 kts 352°
2026-04-14 18:55 44.78128 4.73007 38154 ft 421 kts 352°
2026-04-14 18:55 44.83949 4.71705 38157 ft 420 kts 352°
2026-04-14 18:56 44.89694 4.70422 38155 ft 420 kts 352°
2026-04-14 18:56 44.95474 4.69131 38162 ft 420 kts 352°
2026-04-14 18:57 45.01251 4.67839 38176 ft 419 kts 352°
2026-04-14 18:57 45.07019 4.66546 38182 ft 419 kts 352°
2026-04-14 18:58 45.12747 4.65260 38179 ft 419 kts 352°
2026-04-14 18:58 45.18502 4.63965 38183 ft 419 kts 352°
2026-04-14 18:59 45.24266 4.62650 38160 ft 419 kts 352°
2026-04-14 18:59 45.29998 4.61328 38209 ft 415 kts 353°
2026-04-14 19:00 45.35683 4.60026 38202 ft 412 kts 353°
2026-04-14 19:00 45.41347 4.58730 38199 ft 412 kts 353°
2026-04-14 19:01 45.47005 4.57432 38188 ft 411 kts 353°
2026-04-14 19:01 45.52668 4.56130 38193 ft 411 kts 353°
2026-04-14 19:02 45.58289 4.54836 38197 ft 411 kts 353°
2026-04-14 19:02 45.63980 4.53522 38197 ft 411 kts 353°
2026-04-14 19:03 45.69595 4.52223 38198 ft 411 kts 353°
2026-04-14 19:03 45.75253 4.50914 38210 ft 411 kts 353°
2026-04-14 19:04 45.80903 4.49592 38207 ft 412 kts 353°
2026-04-14 19:04 45.86555 4.48267 38206 ft 411 kts 353°
2026-04-14 19:05 45.92221 4.46944 38210 ft 412 kts 352°
2026-04-14 19:05 45.97894 4.45619 38209 ft 413 kts 353°
2026-04-14 19:06 46.03534 4.44299 38206 ft 413 kts 352°
2026-04-14 19:06 46.09210 4.42965 38205 ft 413 kts 352°
2026-04-14 19:07 46.14883 4.41631 38206 ft 413 kts 352°
2026-04-14 19:07 46.20554 4.40295 38206 ft 413 kts 352°
2026-04-14 19:08 46.26230 4.38947 38198 ft 412 kts 352°
2026-04-14 19:08 46.31789 4.37185 38205 ft 410 kts 348°
2026-04-14 19:09 46.37320 4.35238 38200 ft 409 kts 348°
2026-04-14 19:09 46.42855 4.33338 38205 ft 408 kts 348°
2026-04-14 19:10 46.48383 4.31408 38209 ft 408 kts 348°
2026-04-14 19:10 46.53919 4.29463 38203 ft 409 kts 348°
2026-04-14 19:11 46.59444 4.27518 38204 ft 409 kts 348°
2026-04-14 19:11 46.64976 4.25565 38203 ft 409 kts 348°
2026-04-14 19:12 46.70506 4.23608 38203 ft 409 kts 348°
2026-04-14 19:13 46.78765 4.20679 38199 ft 409 kts 348°
2026-04-14 19:13 46.84300 4.18710 38200 ft 409 kts 348°
2026-04-14 19:14 46.89828 4.16739 38198 ft 409 kts 348°
2026-04-14 19:14 46.95354 4.14766 38204 ft 408 kts 348°
2026-04-14 19:15 47.00864 4.12793 38202 ft 407 kts 348°
2026-04-14 19:15 47.06308 4.10652 38205 ft 408 kts 343°
2026-04-14 19:16 47.11589 4.07596 38211 ft 407 kts 340°
2026-04-14 19:16 47.16844 4.04577 38205 ft 404 kts 341°
2026-04-14 19:17 47.22080 4.01552 38205 ft 403 kts 340°
2026-04-14 19:17 47.27295 3.98474 38205 ft 403 kts 340°
2026-04-14 19:18 47.32469 3.95410 38214 ft 403 kts 340°
2026-04-14 19:18 47.37676 3.92317 38207 ft 403 kts 340°
2026-04-14 19:19 47.42887 3.89214 38208 ft 403 kts 340°
2026-04-14 19:19 47.48096 3.86104 38208 ft 403 kts 340°
2026-04-14 19:20 47.53300 3.82991 38211 ft 403 kts 340°
2026-04-14 19:20 47.58501 3.79867 38210 ft 403 kts 340°
2026-04-14 19:21 47.63697 3.76719 38210 ft 403 kts 340°
2026-04-14 19:21 47.68853 3.73604 38211 ft 403 kts 340°
2026-04-14 19:22 47.74058 3.70463 38211 ft 403 kts 340°
2026-04-14 19:22 47.79256 3.67321 38212 ft 403 kts 340°
2026-04-14 19:23 47.84462 3.64167 38211 ft 404 kts 339°
2026-04-14 19:23 47.88790 3.61540 38211 ft 404 kts 339°
2026-04-14 19:24 47.94847 3.57856 38216 ft 404 kts 339°
2026-04-14 19:24 48.00048 3.54667 38216 ft 404 kts 339°
2026-04-14 19:25 48.04408 3.51973 38216 ft 404 kts 339°
2026-04-14 19:25 48.09578 3.48788 38222 ft 404 kts 339°
2026-04-14 19:26 48.14782 3.45581 38216 ft 404 kts 339°
2026-04-14 19:26 48.19986 3.42370 38218 ft 404 kts 339°
2026-04-14 19:27 48.25195 3.39148 38229 ft 405 kts 339°
2026-04-14 19:27 48.30415 3.35912 38218 ft 406 kts 339°
2026-04-14 19:28 48.35638 3.32667 38223 ft 406 kts 339°
2026-04-14 19:28 48.40783 3.29270 38221 ft 406 kts 334°
2026-04-14 19:29 48.45808 3.25332 38216 ft 407 kts 334°
2026-04-14 19:29 48.50854 3.21445 38219 ft 407 kts 334°
2026-04-14 19:30 48.55904 3.17552 38219 ft 407 kts 334°
2026-04-14 19:30 48.60951 3.13648 38225 ft 407 kts 334°
2026-04-14 19:31 48.66003 3.09732 38219 ft 408 kts 334°
2026-04-14 19:31 48.71061 3.05802 38220 ft 408 kts 334°
2026-04-14 19:32 48.76081 3.01895 38234 ft 407 kts 334°
2026-04-14 19:32 48.81113 2.97965 38216 ft 406 kts 334°
2026-04-14 19:33 48.86277 2.94542 38203 ft 405 kts 347°
2026-04-14 19:33 48.91820 2.93063 38203 ft 405 kts 343°
2026-04-14 19:34 48.99532 2.87829 38222 ft 406 kts 333°
2026-04-14 19:34 49.04493 2.83701 38211 ft 406 kts 332°
2026-04-14 19:35 49.09427 2.79488 38191 ft 407 kts 331°
2026-04-14 19:35 49.14340 2.75196 38191 ft 407 kts 331°
2026-04-14 19:36 49.19250 2.70877 38206 ft 407 kts 331°
2026-04-14 19:36 49.24132 2.66565 38200 ft 407 kts 331°
2026-04-14 19:37 49.29035 2.62222 38188 ft 406 kts 330°
2026-04-14 19:37 49.33924 2.57876 38207 ft 406 kts 330°
2026-04-14 19:38 49.38805 2.53527 38209 ft 406 kts 330°
2026-04-14 19:38 49.43659 2.49194 38191 ft 406 kts 330°
2026-04-14 19:39 49.48546 2.44819 38215 ft 406 kts 329°
2026-04-14 19:39 49.53077 2.39643 38201 ft 407 kts 320°
2026-04-14 19:40 49.57389 2.33970 38200 ft 408 kts 322°
2026-04-14 19:40 49.61760 2.28378 38202 ft 408 kts 321°
2026-04-14 19:41 49.66080 2.22694 38208 ft 408 kts 320°
2026-04-14 19:41 49.70365 2.16997 38204 ft 405 kts 320°
2026-04-14 19:42 49.74606 2.11345 38202 ft 405 kts 320°
2026-04-14 19:42 49.78875 2.05637 38181 ft 405 kts 320°
2026-04-14 19:43 49.83134 1.99927 38198 ft 405 kts 320°
2026-04-14 19:43 49.87389 1.94209 38183 ft 405 kts 320°
2026-04-14 19:44 49.91646 1.88474 38188 ft 405 kts 320°
2026-04-14 19:44 49.95902 1.82726 38205 ft 405 kts 319°
2026-04-14 19:45 50.00153 1.76975 38165 ft 405 kts 319°
2026-04-14 19:45 50.04408 1.71198 37820 ft 408 kts 319°
2026-04-14 19:46 50.06526 1.68319 37332 ft 400 kts 319°
2026-04-14 19:46 50.08581 1.65530 36867 ft 395 kts 319°
2026-04-14 19:46 50.10636 1.62716 36408 ft 394 kts 318°
2026-04-14 19:46 50.12702 1.59870 35964 ft 396 kts 318°
2026-04-14 19:47 50.14772 1.57026 35512 ft 399 kts 319°
2026-04-14 19:47 50.16874 1.54155 35083 ft 402 kts 319°
2026-04-14 19:47 50.18988 1.51277 34657 ft 405 kts 319°
2026-04-14 19:47 50.21122 1.48373 34241 ft 407 kts 318°
2026-04-14 19:48 50.23264 1.45455 33759 ft 410 kts 318°
2026-04-14 19:48 50.25419 1.42515 33286 ft 413 kts 318°
2026-04-14 19:48 50.27579 1.39564 32827 ft 415 kts 318°
2026-04-14 19:48 50.29771 1.36569 32347 ft 418 kts 318°
2026-04-14 19:49 50.31943 1.33600 31897 ft 422 kts 318°
2026-04-14 19:49 50.34159 1.30564 31453 ft 425 kts 318°
2026-04-14 19:49 50.36382 1.27515 31017 ft 428 kts 318°
2026-04-14 19:49 50.38636 1.24420 30576 ft 431 kts 318°
2026-04-14 19:50 50.40900 1.21307 30117 ft 434 kts 318°
2026-04-14 19:50 50.43174 1.18178 29636 ft 436 kts 317°
2026-04-14 19:50 50.45460 1.15028 29144 ft 439 kts 317°
2026-04-14 19:50 50.47757 1.11858 28653 ft 441 kts 317°
2026-04-14 19:51 50.50075 1.08660 28175 ft 443 kts 318°
2026-04-14 19:51 50.52440 1.05541 27713 ft 446 kts 320°
2026-04-14 19:51 50.54883 1.02498 27243 ft 448 kts 321°
2026-04-14 19:51 50.57309 0.99504 26799 ft 450 kts 321°
2026-04-14 19:52 50.59768 0.96436 26353 ft 452 kts 320°
2026-04-14 19:52 50.62233 0.93341 25918 ft 454 kts 320°
2026-04-14 19:52 50.64714 0.90234 25471 ft 457 kts 320°
2026-04-14 19:52 50.67217 0.87115 25053 ft 460 kts 320°
2026-04-14 19:53 50.69687 0.84045 24635 ft 440 kts 320°
2026-04-14 19:53 50.72034 0.81129 24204 ft 419 kts 320°
2026-04-14 19:53 50.74277 0.78337 23781 ft 402 kts 320°
2026-04-14 19:53 50.76450 0.75621 23302 ft 399 kts 320°
2026-04-14 19:54 50.78640 0.72874 22823 ft 402 kts 320°
2026-04-14 19:54 50.83019 0.67382 21882 ft 399 kts 320°
2026-04-14 19:54 50.85159 0.64698 21422 ft 396 kts 320°
2026-04-14 19:55 50.87315 0.61993 20941 ft 394 kts 320°
2026-04-14 19:55 50.89451 0.59306 20465 ft 392 kts 320°
2026-04-14 19:55 50.91585 0.56619 20009 ft 389 kts 320°
2026-04-14 19:55 50.93694 0.53955 19556 ft 387 kts 320°
2026-04-14 19:56 50.95790 0.51291 19101 ft 385 kts 320°
2026-04-14 19:56 50.97872 0.48628 18665 ft 383 kts 320°
2026-04-14 19:56 50.99941 0.45978 18216 ft 381 kts 320°
2026-04-14 19:56 51.02006 0.43343 17716 ft 380 kts 320°
2026-04-14 19:57 51.04042 0.40756 17220 ft 378 kts 320°
2026-04-14 19:57 51.06093 0.38152 16746 ft 377 kts 320°
2026-04-14 19:57 51.08138 0.35551 16275 ft 375 kts 320°
2026-04-14 19:57 51.10168 0.32960 15811 ft 374 kts 319°
2026-04-14 19:58 51.12193 0.30367 15368 ft 372 kts 319°
2026-04-14 19:58 51.14205 0.27790 14927 ft 371 kts 319°
2026-04-14 19:58 51.16215 0.25217 14503 ft 370 kts 319°
2026-04-14 19:58 51.18220 0.22651 14080 ft 368 kts 319°
2026-04-14 19:59 51.20217 0.20094 13669 ft 367 kts 319°
2026-04-14 19:59 51.22205 0.17546 13207 ft 366 kts 319°
2026-04-14 19:59 51.24181 0.15008 12750 ft 363 kts 319°
2026-04-14 19:59 51.26139 0.12492 12310 ft 359 kts 319°
2026-04-14 20:00 51.28081 0.09995 11865 ft 355 kts 319°
2026-04-14 20:00 51.29957 0.07559 11417 ft 341 kts 316°
2026-04-14 20:00 51.31469 0.04766 10978 ft 326 kts 297°
2026-04-14 20:00 51.32271 0.01460 10542 ft 314 kts 283°
2026-04-14 20:01 51.32860 -0.01860 10164 ft 307 kts 287°